Weather History for KMOB - September, 2012

Change the Weather History Date:

Thursday, September 6, 2012

  Actual Average Record
Temperature  
Mean Temperature 82 °F 80 °F  
Max Temperature 89 °F 89 °F 98 °F (1954)
Min Temperature 74 °F 71 °F 59 °F (2011)
Degree Days  
Heating Degree Days 0 0  
Month to date heating degree days 0 0  
Since 1 July heating degree days 0 0  
Cooling Degree Days 17 15  
Month to date cooling degree days 102 92  
Year to date cooling degree days 2285 2019  
Growing Degree Days 31 (Base 50)    
Moisture  
Dew Point 74 °F    
Average Humidity 82    
Maximum Humidity 100    
Minimum Humidity 63    
Precipitation  
Precipitation 0.00 in 0.17 in 6.58 in (1967)
Month to date precipitation 0.37 1.06  
Year to date precipitation 60.24 48.22  
Sea Level Pressure  
Sea Level Pressure 29.91 in    
Wind  
Wind Speed 6 mph (East)    
Max Wind Speed 13 mph    
Max Gust Speed 16 mph    
Visibility 9 miles    
Events      
T = Trace of Precipitation, MM = Missing Value Source: NWS Daily Summary

Daily Weather History Graph

Daily Weather History Graph

Search for Another Location

Airport or City:

Trip Planner

Search our weather history database for the weather conditions in past years. The results will help you decide how hot, cold, wet, or windy it might be!

Date:

Astronomy

Sep. 06, 2012 Rise Set
Actual Time 6:32 AM CDT 7:09 PM CDT
Civil Twilight 6:08 AM CDT 7:33 PM CDT
Nautical Twilight 5:39 AM CDT 8:02 PM CDT
Astronomical Twilight 5:10 AM CDT 8:31 PM CDT
Moon 10:48 PM CDT (9/6) 12:03 PM CDT (9/6)
Length of Visible Light 13h 25m
Length of Day
12h 36m
Waning Gibbous, 67% of the Moon is Illuminated
Sep 6
Waning Gibbous
Sep 8
Last Quarter
Sep 15
New
Sep 22
First Quarter
Sep 29
Full

Hourly Weather History & Observations

Time (CDT) Temp. Heat Index Dew Point Humidity Pressure Visibility Wind Dir Wind Speed Gust Speed Precip Events Conditions
12:56 AM 75.9 °F - 73.9 °F 94% 29.87 in 10.0 mi ENE 4.6 mph - N/A   Scattered Clouds
1:56 AM 75.0 °F - 73.0 °F 94% 29.87 in 10.0 mi North 3.5 mph - N/A   Partly Cloudy
2:56 AM 73.9 °F - 73.0 °F 97% 29.87 in 9.0 mi NE 4.6 mph - N/A   Partly Cloudy
3:56 AM 75.0 °F - 73.0 °F 94% 29.87 in 9.0 mi NNE 4.6 mph - N/A   Scattered Clouds
4:07 AM 75.2 °F - 73.4 °F 94% 29.89 in 8.0 mi North 5.8 mph - N/A   Overcast
4:56 AM 75.0 °F - 73.9 °F 96% 29.89 in 6.0 mi North 8.1 mph - N/A   Overcast
5:56 AM 75.0 °F - 73.9 °F 96% 29.90 in 6.0 mi NNE 6.9 mph - N/A   Overcast
6:56 AM 75.0 °F - 73.9 °F 96% 29.92 in 5.0 mi NE 5.8 mph - N/A   Mostly Cloudy
7:56 AM 77.0 °F - 75.0 °F 94% 29.93 in 7.0 mi NE 5.8 mph - N/A   Overcast
8:16 AM 78.8 °F - 75.2 °F 89% 29.94 in 8.0 mi NE 5.8 mph - N/A   Overcast
8:29 AM 78.8 °F - 75.2 °F 89% 29.94 in 8.0 mi East 8.1 mph - N/A   Mostly Cloudy
8:56 AM 80.1 °F 85.1 °F 75.0 °F 85% 29.94 in 10.0 mi East 4.6 mph - N/A   Mostly Cloudy
9:47 AM 82.4 °F 88.2 °F 73.4 °F 74% 29.95 in 10.0 mi East 8.1 mph - N/A   Mostly Cloudy
9:56 AM 82.0 °F 87.9 °F 73.9 °F 76% 29.95 in 10.0 mi ESE 8.1 mph - N/A   Mostly Cloudy
10:56 AM 84.9 °F 91.4 °F 73.0 °F 67% 29.96 in 10.0 mi East 6.9 mph - N/A   Mostly Cloudy
11:56 AM 87.1 °F 95.4 °F 73.9 °F 65% 29.95 in 10.0 mi ESE 8.1 mph - N/A   Mostly Cloudy
12:56 PM 84.9 °F 91.4 °F 73.0 °F 67% 29.94 in 10.0 mi ESE 4.6 mph - N/A   Mostly Cloudy
1:56 PM 87.1 °F 94.5 °F 73.0 °F 63% 29.93 in 10.0 mi ESE 3.5 mph - N/A   Mostly Cloudy
2:04 PM 87.8 °F 95.6 °F 73.4 °F 62% 29.93 in 10.0 mi ESE 8.1 mph - N/A   Mostly Cloudy
2:14 PM 87.8 °F 95.6 °F 73.4 °F 62% 29.93 in 10.0 mi Variable 5.8 mph - N/A   Mostly Cloudy
2:56 PM 88.0 °F 96.5 °F 73.9 °F 63% 29.91 in 10.0 mi East 6.9 mph - N/A   Scattered Clouds
3:56 PM 86.0 °F 93.0 °F 73.0 °F 65% 29.90 in 10.0 mi SE 8.1 mph - N/A   Mostly Cloudy
4:56 PM 87.1 °F 95.4 °F 73.9 °F 65% 29.89 in 10.0 mi SSE 11.5 mph - N/A   Scattered Clouds
5:56 PM 84.9 °F 91.4 °F 73.0 °F 67% 29.89 in 10.0 mi SSE 6.9 mph - N/A   Scattered Clouds
6:56 PM 82.0 °F 87.4 °F 73.0 °F 74% 29.89 in 10.0 mi SSE 8.1 mph - N/A   Partly Cloudy
7:56 PM 80.1 °F 84.5 °F 73.9 °F 81% 29.90 in 10.0 mi SSE 3.5 mph - N/A   Partly Cloudy
8:56 PM 78.1 °F - 73.0 °F 84% 29.92 in 10.0 mi SE 4.6 mph - N/A   Partly Cloudy
9:56 PM 78.1 °F - 73.0 °F 84% 29.93 in 10.0 mi SE 4.6 mph - N/A   Partly Cloudy
10:56 PM 78.1 °F - 73.0 °F 84% 29.93 in 10.0 mi East 5.8 mph - N/A   Partly Cloudy
11:56 PM 77.0 °F - 73.0 °F 88% 29.92 in 10.0 mi East 3.5 mph - N/A   Partly Cloudy